Aeroporto :
LOGIN :

Iscrizione | Disclaimer

   EN    FR    IT 

 










Sommario :    VFR   VFR Marginale   IFR   IFR Intensivo   IFR Molto Intensivo
Visibilità : 
Base nubi : 
>= 8 km
>= 3000ft
5 / 8 km
1000 / 3000 ft
1500m / 5 km
500 / 1000 ft
800 / 1500m
200 / 500 ft
< 800m
< 200 ft
Simboli :   Temporali  Nebbia  Neve Forte  Precipitazioni Forti  Vento > 20 kt
SIGMETs :   Varie  Temporali  Ghiacco  Turbolenza  Onda orograficha  Ceneri Vulcaniche






- Altitudine del aeroporto : 568 ft


UUMO - Ostafyevo International

ULTIMO METAR :
  • 232200Z 22004MPS 9999 OVC004 02/02 Q1008 R26/290050 NOSIG RMK QBB140 QFE740/0987

METARs OBSOLETI :
  • 232100Z 23003MPS 9999 OVC004 02/02 Q1008 R26/290050 NOSIG RMK QBB130 QFE741/0988
  • 232000Z 22004MPS 8000 OVC003 02/02 Q1008 R26/290050 NOSIG RMK QBB090 QFE741/0988

TAF TAF UUMO
Valido dal 23 a 21 ore il 24 a 06 ore UTC


231951Z 2321/2406 23005MPS 8000 BKN006 BKN013
TEMPO 2321/2406 3100 -SNRA BR OVC003



MetMap, La meteo Aeronautica in un colpo d'occhio ! - Copyright ORBIFLY Dicembre 2007 - Disclaimer

ORBIFLY MET'MAP TEAM :

Programmazione e sviluppo : Alexandra Zaïnal
Concezione : Baudouin d'Aumeries
Aiuto per la programmazione : Marc-Olivier Méhu
Supporto tecnico e logistico : Manuel Goepfert
Aiuto per la traduzione : Arnaldo La Scala

Contatto : metmap@orbifly.com




FONTI E CREDITI :

   NOAA